ABW5927 ULLI-UBBB

Flight info

Callsign ABW5927
Flight time N/A
Altitude 33000
Route SUGIN T873 IRDEK L4 UPERI T833 TOGMO M56 ABAGI W21 WGD DCT TUSAB DCT NOKLI N72 BISNA/N0477F330 N72 NOBVA
Aircraft B77L/H-SDE1E2E3FGHIJ2J3J4J5M1RWXY/LB1D1

Departure

Time 2026-05-06 11:37
Airport Pulkovo Airport (ULLI)

Arrival

Time N/A
Airport Heydar Aliyev International Airport (UBBB)
Time Latitude Longitude Altitude Speed Heading
2026-05-06 10:41 59.79939 30.29197 86 ft 0 kts 196°
2026-05-06 11:25 59.79960 30.29208 84 ft 4 kts 189°
2026-05-06 11:26 59.79987 30.29214 88 ft 4 kts 180°
2026-05-06 11:26 59.80014 30.29210 89 ft 4 kts 167°
2026-05-06 11:26 59.80039 30.29193 89 ft 4 kts 143°
2026-05-06 11:26 59.80051 30.29165 89 ft 0 kts 106°
2026-05-06 11:32 59.80046 30.29199 89 ft 6 kts 107°
2026-05-06 11:32 59.80034 30.29282 87 ft 6 kts 107°
2026-05-06 11:33 59.80021 30.29365 85 ft 6 kts 107°
2026-05-06 11:33 59.80009 30.29447 85 ft 6 kts 107°
2026-05-06 11:33 59.79996 30.29529 85 ft 6 kts 107°
2026-05-06 11:33 59.79984 30.29612 84 ft 6 kts 107°
2026-05-06 11:34 59.79968 30.29716 86 ft 10 kts 107°
2026-05-06 11:34 59.79945 30.29868 85 ft 12 kts 107°
2026-05-06 11:34 59.79938 30.29988 82 ft 8 kts 81°
2026-05-06 11:34 59.79964 30.30078 86 ft 8 kts 51°
2026-05-06 11:35 59.79981 30.30119 84 ft 4 kts 49°
2026-05-06 11:35 59.79998 30.30157 84 ft 4 kts 48°
2026-05-06 11:35 59.80019 30.30203 85 ft 7 kts 47°
2026-05-06 11:35 59.80061 30.30275 85 ft 8 kts 30°
2026-05-06 11:36 59.80112 30.30273 84 ft 8 kts 321°
2026-05-06 11:36 59.80124 30.30217 84 ft 0 kts 287°
2026-05-06 11:36 59.80126 30.30200 85 ft 9 kts 287°
2026-05-06 11:36 59.80194 30.29751 85 ft 66 kts 286°
2026-05-06 11:37 59.80384 30.28486 84 ft 123 kts 287°
2026-05-06 11:37 59.80680 30.26543 86 ft 168 kts 289°
2026-05-06 11:37 59.81033 30.24260 400 ft 176 kts 288°
2026-05-06 11:37 59.81375 30.21895 812 ft 178 kts 288°
2026-05-06 11:38 59.81713 30.19627 1576 ft 163 kts 285°
2026-05-06 11:38 59.82031 30.17394 1999 ft 175 kts 286°
2026-05-06 11:38 59.82392 30.14950 2317 ft 193 kts 286°
2026-05-06 11:38 59.82796 30.12262 2527 ft 211 kts 286°
2026-05-06 11:39 59.83196 30.09425 3064 ft 217 kts 285°
2026-05-06 11:39 59.83632 30.06383 3312 ft 238 kts 286°
2026-05-06 11:39 59.84057 30.03156 3905 ft 242 kts 277°
2026-05-06 11:39 59.83866 29.99879 4500 ft 253 kts 249°
2026-05-06 11:40 59.82867 29.97148 5266 ft 254 kts 222°
2026-05-06 11:40 59.81260 29.95559 5873 ft 262 kts 201°
2026-05-06 11:40 59.79499 29.94588 6443 ft 269 kts 198°
2026-05-06 11:40 59.77668 29.93618 7035 ft 275 kts 199°
2026-05-06 11:41 59.75783 29.92954 7621 ft 283 kts 179°
2026-05-06 11:41 59.73911 29.94112 8377 ft 287 kts 150°
2026-05-06 11:41 59.72482 29.96921 8853 ft 300 kts 119°
2026-05-06 11:41 59.71796 30.00859 9360 ft 304 kts 103°
2026-05-06 11:42 59.71290 30.04952 9912 ft 310 kts 106°
2026-05-06 11:42 59.70678 30.09124 10252 ft 323 kts 107°
2026-05-06 11:42 59.70012 30.13517 10391 ft 343 kts 108°
2026-05-06 11:42 59.69466 30.18240 10525 ft 362 kts 95°
2026-05-06 11:43 59.69367 30.23354 10696 ft 382 kts 89°
2026-05-06 11:43 59.69366 30.28735 10966 ft 399 kts 90°
2026-05-06 11:43 59.69320 30.34322 11416 ft 410 kts 93°
2026-05-06 11:44 59.68293 30.45666 12645 ft 425 kts 105°
2026-05-06 11:44 59.67572 30.51397 13366 ft 432 kts 106°
2026-05-06 11:44 59.66874 30.57238 13994 ft 441 kts 105°
2026-05-06 11:44 59.66214 30.63200 14618 ft 447 kts 104°
2026-05-06 11:45 59.65566 30.69238 15296 ft 451 kts 104°
2026-05-06 11:45 59.64977 30.75373 15969 ft 456 kts 102°
2026-05-06 11:45 59.64460 30.81598 16573 ft 462 kts 101°
2026-05-06 11:45 59.63963 30.87923 17207 ft 468 kts 101°
2026-05-06 11:46 59.63463 30.94299 17830 ft 473 kts 101°
2026-05-06 11:46 59.62963 31.00522 18406 ft 478 kts 101°
2026-05-06 11:46 59.62426 31.07046 18930 ft 483 kts 102°
2026-05-06 11:46 59.61873 31.13630 19453 ft 489 kts 102°
2026-05-06 11:47 59.61305 31.20293 19954 ft 494 kts 102°
2026-05-06 11:47 59.60726 31.27014 20472 ft 499 kts 102°
2026-05-06 11:47 59.60138 31.33794 20965 ft 504 kts 102°
2026-05-06 11:47 59.59546 31.40576 21465 ft 509 kts 103°
2026-05-06 11:48 59.58939 31.47493 21956 ft 514 kts 103°
2026-05-06 11:48 59.58323 31.54474 22431 ft 519 kts 103°
2026-05-06 11:48 59.57699 31.61519 22934 ft 523 kts 103°
2026-05-06 11:48 59.57064 31.68625 23430 ft 529 kts 103°
2026-05-06 11:49 59.56417 31.75831 23796 ft 535 kts 103°
2026-05-06 11:49 59.55762 31.83086 24214 ft 539 kts 103°
2026-05-06 11:49 59.55100 31.90378 24688 ft 541 kts 103°
2026-05-06 11:49 59.54431 31.97700 25144 ft 544 kts 103°
2026-05-06 11:50 59.53736 32.04767 25486 ft 543 kts 108°
2026-05-06 11:50 59.52387 32.11677 25701 ft 539 kts 125°
2026-05-06 11:50 59.50210 32.17552 26072 ft 522 kts 143°
2026-05-06 11:50 59.47576 32.22366 26413 ft 519 kts 146°
2026-05-06 11:51 59.44924 32.27243 26721 ft 526 kts 144°
2026-05-06 11:51 59.42277 32.32256 27117 ft 530 kts 144°
2026-05-06 11:51 59.39643 32.37343 27563 ft 533 kts 143°
2026-05-06 11:51 59.37006 32.42480 27965 ft 536 kts 143°
2026-05-06 11:52 59.34384 32.47592 28247 ft 539 kts 143°
2026-05-06 11:52 59.31716 32.52782 28716 ft 540 kts 143°
2026-05-06 11:52 59.29045 32.57956 29104 ft 542 kts 143°
2026-05-06 11:52 59.26356 32.63139 29476 ft 544 kts 143°
2026-05-06 11:53 59.23652 32.68334 29918 ft 544 kts 143°
2026-05-06 11:53 59.20952 32.73507 30375 ft 542 kts 143°
2026-05-06 11:53 59.18271 32.78634 30879 ft 539 kts 143°
2026-05-06 11:53 59.15598 32.83734 31395 ft 535 kts 143°
2026-05-06 11:54 59.12942 32.88787 31876 ft 533 kts 143°
2026-05-06 11:54 59.10294 32.93811 32306 ft 531 kts 143°
2026-05-06 11:54 59.07646 32.98820 32719 ft 530 kts 143°
2026-05-06 11:54 59.05090 33.03647 33039 ft 530 kts 143°
2026-05-06 11:55 58.99803 33.13593 32964 ft 531 kts 143°
2026-05-06 11:55 58.94519 33.23509 32956 ft 527 kts 143°
2026-05-06 11:56 58.89242 33.33352 32964 ft 525 kts 143°
2026-05-06 11:56 58.83967 33.43137 32961 ft 525 kts 143°
2026-05-06 11:57 58.78693 33.52883 32969 ft 525 kts 143°
2026-05-06 11:57 58.73441 33.62551 32969 ft 526 kts 143°
2026-05-06 11:58 58.68141 33.72266 32963 ft 527 kts 143°
2026-05-06 11:58 58.62824 33.81969 32957 ft 528 kts 143°
2026-05-06 11:59 58.57481 33.91674 32934 ft 525 kts 143°
2026-05-06 11:59 58.52275 34.01097 32949 ft 524 kts 143°
2026-05-06 12:00 58.46978 34.10637 32947 ft 523 kts 143°
2026-05-06 12:00 58.42553 34.18577 32946 ft 523 kts 143°
2026-05-06 12:01 58.37241 34.28067 32917 ft 523 kts 143°
2026-05-06 12:01 58.31944 34.37493 32947 ft 522 kts 143°
2026-05-06 12:02 58.26630 34.46914 32944 ft 522 kts 143°
2026-05-06 12:02 58.21097 34.55748 32942 ft 514 kts 153°
2026-05-06 12:03 58.14972 34.62450 32939 ft 503 kts 163°
2026-05-06 12:03 58.08547 34.67555 32938 ft 500 kts 165°
2026-05-06 12:04 58.02110 34.72646 32938 ft 502 kts 164°
2026-05-06 12:04 57.95732 34.77752 32933 ft 502 kts 164°
2026-05-06 12:05 57.89308 34.82899 32929 ft 501 kts 164°
2026-05-06 12:05 57.82887 34.88019 32932 ft 501 kts 164°
2026-05-06 12:06 57.76473 34.93110 32923 ft 500 kts 163°
2026-05-06 12:06 57.70094 34.98385 32926 ft 505 kts 158°
2026-05-06 12:07 57.64090 35.04872 32925 ft 508 kts 155°
2026-05-06 12:07 57.58002 35.11571 32916 ft 509 kts 155°
2026-05-06 12:08 57.51885 35.18213 32871 ft 508 kts 155°
2026-05-06 12:08 57.45768 35.24787 32911 ft 508 kts 155°
2026-05-06 12:09 57.39684 35.31289 32912 ft 508 kts 155°
2026-05-06 12:09 57.33552 35.37820 32911 ft 508 kts 155°
2026-05-06 12:10 57.27424 35.44324 32909 ft 508 kts 155°
2026-05-06 12:10 57.21295 35.50805 32896 ft 507 kts 155°
2026-05-06 12:11 57.15159 35.57269 32906 ft 508 kts 155°
2026-05-06 12:11 57.09020 35.63710 32898 ft 508 kts 155°
2026-05-06 12:12 57.02869 35.70139 32876 ft 508 kts 155°
2026-05-06 12:12 56.96734 35.76528 32868 ft 507 kts 155°
2026-05-06 12:13 56.90602 35.82889 32886 ft 506 kts 154°
2026-05-06 12:13 56.84508 35.89190 32891 ft 506 kts 154°
2026-05-06 12:14 56.78393 35.95520 32884 ft 505 kts 152°
2026-05-06 12:14 56.75574 35.99403 32877 ft 511 kts 139°
2026-05-06 12:14 56.73281 36.04066 32893 ft 515 kts 128°
2026-05-06 12:15 56.71372 36.09610 32870 ft 518 kts 116°
2026-05-06 12:15 56.69958 36.15622 32917 ft 516 kts 112°
2026-05-06 12:15 56.67244 36.27743 32906 ft 518 kts 113°
2026-05-06 12:16 56.64415 36.39813 32882 ft 520 kts 114°
2026-05-06 12:16 56.61519 36.51857 32877 ft 521 kts 114°
2026-05-06 12:17 56.57854 36.63021 32878 ft 514 kts 136°
2026-05-06 12:17 56.55210 36.67268 32878 ft 510 kts 148°
2026-05-06 12:17 56.52165 36.70492 32867 ft 501 kts 160°
2026-05-06 12:18 56.45765 36.75353 32875 ft 502 kts 161°
2026-05-06 12:18 56.39342 36.80340 32889 ft 504 kts 160°
2026-05-06 12:19 56.32890 36.85467 32873 ft 506 kts 160°
2026-05-06 12:19 56.26488 36.90560 32871 ft 506 kts 159°
2026-05-06 12:20 56.20049 36.95655 32867 ft 505 kts 159°
2026-05-06 12:20 56.13730 37.00631 32869 ft 503 kts 159°
2026-05-06 12:21 56.07757 37.07190 32869 ft 508 kts 142°
2026-05-06 12:21 56.02987 37.16477 32842 ft 510 kts 126°
2026-05-06 12:22 55.98788 37.26665 32851 ft 509 kts 133°
2026-05-06 12:22 55.93602 37.35158 32864 ft 506 kts 146°
2026-05-06 12:23 55.87711 37.42077 32867 ft 505 kts 149°
2026-05-06 12:23 55.81855 37.48960 32859 ft 507 kts 148°
2026-05-06 12:24 55.75972 37.55953 32865 ft 507 kts 148°
2026-05-06 12:24 55.70144 37.62858 32861 ft 507 kts 148°
2026-05-06 12:25 55.64240 37.69695 32858 ft 506 kts 152°
2026-05-06 12:25 55.58032 37.75559 32865 ft 505 kts 154°
2026-05-06 12:26 55.51806 37.81322 32854 ft 505 kts 154°
2026-05-06 12:26 55.45597 37.87137 32861 ft 505 kts 154°
2026-05-06 12:27 55.39388 37.92953 32857 ft 505 kts 153°
2026-05-06 12:27 55.33389 37.99450 32866 ft 506 kts 149°
2026-05-06 12:28 55.27580 38.06013 32858 ft 506 kts 148°
2026-05-06 12:28 55.21660 38.12646 32860 ft 504 kts 149°
2026-05-06 12:29 55.15743 38.19218 32864 ft 502 kts 149°
2026-05-06 12:29 55.09877 38.25698 32868 ft 501 kts 149°
2026-05-06 12:30 55.03984 38.32186 32858 ft 499 kts 149°
2026-05-06 12:30 54.98122 38.38619 32863 ft 498 kts 149°
2026-05-06 12:31 54.92268 38.45022 32866 ft 497 kts 149°
2026-05-06 12:31 54.86417 38.51399 32856 ft 496 kts 149°
2026-05-06 12:32 54.80565 38.57756 32862 ft 496 kts 149°
2026-05-06 12:32 54.74716 38.64087 32860 ft 496 kts 149°
2026-05-06 12:33 54.68902 38.70360 32852 ft 496 kts 149°
2026-05-06 12:33 54.63049 38.76652 32844 ft 495 kts 149°
2026-05-06 12:34 54.57195 38.82924 32846 ft 495 kts 149°
2026-05-06 12:34 54.51344 38.89173 32852 ft 494 kts 149°
2026-05-06 12:35 54.45506 38.95389 32847 ft 493 kts 149°
2026-05-06 12:35 54.40123 39.02263 32842 ft 493 kts 133°
2026-05-06 12:36 54.36347 39.11991 32850 ft 492 kts 111°
2026-05-06 12:36 54.33926 39.22972 32851 ft 493 kts 111°
2026-05-06 12:37 54.31337 39.33861 32851 ft 494 kts 112°
2026-05-06 12:37 54.28679 39.44709 32851 ft 494 kts 112°
2026-05-06 12:38 54.26036 39.55492 32854 ft 494 kts 112°
2026-05-06 12:38 54.23377 39.66343 32850 ft 494 kts 112°
2026-05-06 12:39 54.20718 39.77148 32852 ft 494 kts 112°
2026-05-06 12:39 54.18034 39.87998 32855 ft 494 kts 112°
2026-05-06 12:40 54.15368 39.98723 32858 ft 493 kts 112°
2026-05-06 12:40 54.12725 40.09312 32863 ft 493 kts 113°
2026-05-06 12:41 54.10435 40.20341 32856 ft 492 kts 106°
2026-05-06 12:41 54.08544 40.31489 32860 ft 492 kts 106°
2026-05-06 12:42 54.06632 40.42635 32849 ft 492 kts 106°
2026-05-06 12:42 54.04672 40.53806 32854 ft 491 kts 106°
2026-05-06 12:43 54.02700 40.64919 32855 ft 491 kts 107°
2026-05-06 12:43 54.00714 40.76051 32853 ft 491 kts 107°
2026-05-06 12:44 53.98723 40.87157 32853 ft 490 kts 107°
2026-05-06 12:44 53.96731 40.98209 32846 ft 489 kts 107°
2026-05-06 12:45 53.94804 41.09063 32852 ft 488 kts 105°
2026-05-06 12:46 53.92126 41.25688 32854 ft 488 kts 105°
2026-05-06 12:46 53.90320 41.36804 32851 ft 488 kts 105°
2026-05-06 12:47 53.88795 41.46039 32844 ft 488 kts 105°
2026-05-06 12:47 53.86953 41.57096 32852 ft 488 kts 105°
2026-05-06 12:48 53.85104 41.68142 32858 ft 488 kts 105°
2026-05-06 12:48 53.83237 41.79208 32847 ft 489 kts 106°
2026-05-06 12:49 53.81335 41.90262 32848 ft 489 kts 106°
2026-05-06 12:49 53.79456 42.01105 32844 ft 488 kts 106°
2026-05-06 12:50 53.77552 42.12050 32853 ft 487 kts 106°
2026-05-06 12:50 53.75629 42.23045 32852 ft 487 kts 106°
2026-05-06 12:51 53.73702 42.34002 32848 ft 487 kts 106°
2026-05-06 12:51 53.71763 42.44956 32849 ft 486 kts 107°
2026-05-06 12:52 53.69816 42.55898 32870 ft 486 kts 107°
2026-05-06 12:52 53.66985 42.66091 32870 ft 483 kts 132°
2026-05-06 12:52 53.64542 42.69855 32853 ft 483 kts 146°
2026-05-06 12:53 53.61581 42.72490 32857 ft 481 kts 159°
2026-05-06 12:53 53.55343 42.76766 32872 ft 485 kts 158°
2026-05-06 12:54 53.49084 42.81125 32856 ft 488 kts 158°
2026-05-06 12:54 53.42836 42.85583 32858 ft 486 kts 157°
2026-05-06 12:55 53.36674 42.90004 32857 ft 480 kts 157°
2026-05-06 12:55 53.30565 42.94366 32866 ft 479 kts 157°
2026-05-06 12:56 53.24437 42.98725 32862 ft 478 kts 158°
2026-05-06 12:56 53.18416 43.02994 32870 ft 477 kts 157°
2026-05-06 12:57 53.12296 43.07330 32888 ft 478 kts 156°
2026-05-06 12:57 53.06215 43.11819 32871 ft 478 kts 156°
2026-05-06 12:58 53.00145 43.16368 32875 ft 478 kts 156°
2026-05-06 12:58 52.94086 43.20879 32872 ft 478 kts 156°
2026-05-06 12:59 52.88017 43.25363 32876 ft 477 kts 156°
2026-05-06 12:59 52.81946 43.29826 32875 ft 477 kts 156°
2026-05-06 13:00 52.75874 43.34276 32871 ft 477 kts 156°
2026-05-06 13:00 52.69835 43.38690 32895 ft 477 kts 156°
2026-05-06 13:01 52.63764 43.43115 32880 ft 477 kts 156°
2026-05-06 13:01 52.57689 43.47528 32887 ft 477 kts 156°
2026-05-06 13:02 52.51617 43.51927 32888 ft 477 kts 156°
2026-05-06 13:02 52.45538 43.56317 32885 ft 477 kts 156°
2026-05-06 13:03 52.39461 43.60693 32886 ft 477 kts 156°
2026-05-06 13:03 52.33407 43.65039 32886 ft 477 kts 156°
2026-05-06 13:04 52.27385 43.69348 32890 ft 477 kts 156°
2026-05-06 13:04 52.21307 43.73686 32891 ft 476 kts 155°
2026-05-06 13:05 52.15243 43.78001 32885 ft 475 kts 156°
2026-05-06 13:05 52.09178 43.82300 32886 ft 474 kts 156°
2026-05-06 13:06 52.03133 43.86575 32900 ft 473 kts 156°
2026-05-06 13:06 51.97109 43.90823 32889 ft 473 kts 156°
2026-05-06 13:07 51.91110 43.95040 32889 ft 472 kts 156°
2026-05-06 13:07 51.85086 43.99264 32888 ft 471 kts 156°
2026-05-06 13:08 51.79166 44.03401 32896 ft 471 kts 156°
2026-05-06 13:08 51.73144 44.07598 32892 ft 471 kts 156°
2026-05-06 13:09 51.67117 44.11786 32889 ft 471 kts 156°
2026-05-06 13:09 51.61096 44.15959 32892 ft 471 kts 156°
2026-05-06 13:10 51.55071 44.20121 32896 ft 471 kts 156°
2026-05-06 13:10 51.49043 44.24274 32888 ft 471 kts 156°
2026-05-06 13:11 51.43054 44.28389 32893 ft 471 kts 156°
2026-05-06 13:11 51.37020 44.32522 32895 ft 471 kts 156°
2026-05-06 13:12 51.30987 44.36643 32897 ft 471 kts 156°
2026-05-06 13:12 51.24945 44.40760 32894 ft 471 kts 156°
2026-05-06 13:13 51.18877 44.44720 32885 ft 472 kts 162°
2026-05-06 13:13 51.12455 44.46523 32893 ft 474 kts 176°
2026-05-06 13:14 51.05861 44.46128 32902 ft 475 kts 183°
2026-05-06 13:14 50.99270 44.45400 32902 ft 475 kts 182°
2026-05-06 13:15 50.92662 44.44720 32899 ft 476 kts 182°
2026-05-06 13:15 50.86054 44.44091 32899 ft 476 kts 182°
2026-05-06 13:16 50.79446 44.43481 32900 ft 476 kts 182°
2026-05-06 13:16 50.72839 44.42873 32898 ft 475 kts 182°
2026-05-06 13:17 50.66234 44.42264 32908 ft 475 kts 182°
2026-05-06 13:17 50.59634 44.41657 32902 ft 474 kts 182°
2026-05-06 13:18 50.53053 44.41052 32897 ft 473 kts 182°
2026-05-06 13:18 50.46520 44.40453 32903 ft 472 kts 182°
2026-05-06 13:19 50.40022 44.39860 32900 ft 471 kts 182°
2026-05-06 13:19 50.33478 44.39264 32910 ft 471 kts 182°
2026-05-06 13:20 50.26942 44.38670 32913 ft 470 kts 181°
2026-05-06 13:20 50.20423 44.38080 32902 ft 468 kts 181°
2026-05-06 13:21 50.13913 44.37492 32907 ft 468 kts 181°
2026-05-06 13:21 50.07422 44.36907 32909 ft 467 kts 181°
2026-05-06 13:22 50.00926 44.36324 32910 ft 467 kts 181°
2026-05-06 13:22 49.94474 44.35746 32914 ft 468 kts 181°
2026-05-06 13:23 49.87957 44.35164 32907 ft 469 kts 181°
2026-05-06 13:23 49.81427 44.34582 32913 ft 470 kts 181°
2026-05-06 13:24 49.74888 44.34001 32912 ft 471 kts 181°
2026-05-06 13:24 49.68338 44.33420 32913 ft 471 kts 181°
2026-05-06 13:25 49.61790 44.32841 32918 ft 471 kts 181°
2026-05-06 13:25 49.55285 44.32374 32914 ft 470 kts 177°
2026-05-06 13:26 49.48753 44.32545 32922 ft 469 kts 176°
2026-05-06 13:26 49.42222 44.32759 32918 ft 469 kts 176°
2026-05-06 13:27 49.35693 44.32945 32930 ft 469 kts 176°
2026-05-06 13:27 49.29163 44.33113 32919 ft 470 kts 176°
2026-05-06 13:28 49.22615 44.33279 32920 ft 471 kts 176°
2026-05-06 13:28 49.16056 44.33444 32921 ft 471 kts 176°
2026-05-06 13:29 49.09492 44.33611 32925 ft 472 kts 176°
2026-05-06 13:29 49.02966 44.33775 32945 ft 472 kts 176°
2026-05-06 13:30 48.96387 44.33942 32936 ft 473 kts 176°
2026-05-06 13:30 48.89796 44.34107 32940 ft 474 kts 176°
2026-05-06 13:31 48.83196 44.34279 32939 ft 473 kts 174°
2026-05-06 13:31 48.79953 44.34871 32935 ft 468 kts 163°
2026-05-06 13:31 48.76860 44.36336 32947 ft 464 kts 155°
2026-05-06 13:32 48.71326 44.41175 32957 ft 458 kts 142°
2026-05-06 13:32 48.66100 44.46736 32945 ft 460 kts 142°
2026-05-06 13:33 48.60858 44.52195 32936 ft 461 kts 143°
2026-05-06 13:33 48.55551 44.57641 32929 ft 461 kts 143°
2026-05-06 13:34 48.50217 44.63100 32922 ft 461 kts 143°
2026-05-06 13:34 48.44937 44.68484 32918 ft 461 kts 143°
2026-05-06 13:35 48.39606 44.73906 32916 ft 460 kts 143°
2026-05-06 13:35 48.34320 44.79272 32928 ft 460 kts 143°
2026-05-06 13:36 48.29073 44.84586 32920 ft 460 kts 143°
2026-05-06 13:36 48.24629 44.89077 32917 ft 459 kts 143°
2026-05-06 13:37 48.19328 44.94421 32911 ft 459 kts 143°
2026-05-06 13:37 48.14053 44.99726 32927 ft 459 kts 143°
2026-05-06 13:38 48.08834 45.04962 32902 ft 460 kts 143°
2026-05-06 13:38 48.03504 45.10289 32912 ft 461 kts 144°
2026-05-06 13:39 47.97868 45.14898 32928 ft 464 kts 150°
2026-05-06 13:39 47.92078 45.19174 32895 ft 465 kts 151°
2026-05-06 13:40 47.85340 45.24175 32904 ft 466 kts 150°
2026-05-06 13:40 47.80474 45.27805 32902 ft 467 kts 150°
2026-05-06 13:41 47.74664 45.32138 32893 ft 467 kts 150°
2026-05-06 13:41 47.68884 45.36438 32891 ft 468 kts 151°
2026-05-06 13:42 47.63048 45.40768 32902 ft 469 kts 151°
2026-05-06 13:42 47.57194 45.45099 32887 ft 470 kts 151°
2026-05-06 13:43 47.51342 45.49419 32891 ft 470 kts 151°
2026-05-06 13:43 47.45481 45.53734 32890 ft 471 kts 152°
2026-05-06 13:44 47.39608 45.58047 32888 ft 471 kts 152°
2026-05-06 13:44 47.33771 45.62324 32892 ft 471 kts 152°
2026-05-06 13:45 47.27892 45.66622 32895 ft 471 kts 152°
2026-05-06 13:45 47.19077 45.73049 32890 ft 471 kts 152°
2026-05-06 13:46 47.13197 45.77337 32891 ft 471 kts 152°
2026-05-06 13:46 47.07322 45.81612 32893 ft 472 kts 152°
2026-05-06 13:47 47.01437 45.85884 32889 ft 472 kts 152°
2026-05-06 13:47 46.95550 45.90146 32894 ft 472 kts 152°
2026-05-06 13:48 46.89656 45.94403 32893 ft 473 kts 152°
2026-05-06 13:48 46.83749 45.98659 32894 ft 475 kts 152°
2026-05-06 13:49 46.77901 46.02864 32902 ft 485 kts 152°
2026-05-06 13:49 46.71748 46.07275 32906 ft 492 kts 152°
2026-05-06 13:50 46.65609 46.11663 32890 ft 491 kts 153°
2026-05-06 13:50 46.59464 46.16044 32892 ft 491 kts 153°
2026-05-06 13:51 46.53366 46.20383 32897 ft 491 kts 153°
2026-05-06 13:51 46.47218 46.24747 32894 ft 491 kts 153°
2026-05-06 13:52 46.41081 46.29091 32895 ft 491 kts 153°
2026-05-06 13:52 46.34945 46.33423 32898 ft 491 kts 153°
2026-05-06 13:53 46.28799 46.37752 32898 ft 491 kts 153°
2026-05-06 13:53 46.22659 46.42066 32910 ft 491 kts 153°
2026-05-06 13:54 46.16514 46.46373 32898 ft 491 kts 153°
2026-05-06 13:54 46.10356 46.50681 32898 ft 492 kts 153°
2026-05-06 13:55 46.04199 46.54984 32902 ft 492 kts 153°
2026-05-06 13:55 45.98051 46.59281 32900 ft 492 kts 153°
2026-05-06 13:56 45.91890 46.63578 32904 ft 492 kts 153°
2026-05-06 13:56 45.85773 46.67858 32902 ft 492 kts 153°
2026-05-06 13:57 45.79619 46.72159 32913 ft 491 kts 153°
2026-05-06 13:57 45.73471 46.76439 32905 ft 491 kts 153°
2026-05-06 13:58 45.67325 46.80702 32905 ft 491 kts 153°
2026-05-06 13:58 45.61156 46.84929 32908 ft 492 kts 154°
2026-05-06 13:59 45.54990 46.89144 32907 ft 491 kts 154°
2026-05-06 13:59 45.48819 46.93366 32903 ft 491 kts 154°
2026-05-06 14:00 45.42665 46.97598 32914 ft 491 kts 154°
2026-05-06 14:00 45.36651 47.01731 32912 ft 491 kts 154°
2026-05-06 14:01 45.30544 47.05915 32907 ft 490 kts 154°
2026-05-06 14:01 45.24357 47.10140 32920 ft 489 kts 154°
2026-05-06 14:02 45.16932 47.15198 32919 ft 489 kts 154°
2026-05-06 14:03 45.05856 47.22719 32927 ft 490 kts 154°
2026-05-06 14:03 44.99708 47.26879 32927 ft 490 kts 155°
2026-05-06 14:04 44.93565 47.31029 32921 ft 489 kts 155°
2026-05-06 14:04 44.87429 47.35166 32929 ft 489 kts 155°
2026-05-06 14:05 44.81283 47.39301 32933 ft 490 kts 155°
2026-05-06 14:05 44.75160 47.43410 32934 ft 490 kts 155°
2026-05-06 14:06 44.68992 47.47539 32941 ft 491 kts 155°
2026-05-06 14:06 44.62819 47.51663 32938 ft 491 kts 155°
2026-05-06 14:07 44.56642 47.55781 32938 ft 491 kts 155°
2026-05-06 14:07 44.50467 47.59886 32943 ft 491 kts 155°
2026-05-06 14:08 44.44301 47.63992 32939 ft 490 kts 155°
2026-05-06 14:08 44.38176 47.68073 32943 ft 490 kts 155°
2026-05-06 14:09 44.32012 47.72170 32951 ft 490 kts 155°
2026-05-06 14:09 44.25854 47.76253 32950 ft 490 kts 155°
2026-05-06 14:10 44.19694 47.80327 32953 ft 490 kts 156°
2026-05-06 14:10 44.13528 47.84395 32957 ft 490 kts 156°
2026-05-06 14:11 44.07359 47.88455 32956 ft 490 kts 156°
2026-05-06 14:11 44.01186 47.92509 32959 ft 491 kts 156°
2026-05-06 14:12 43.95021 47.96548 32961 ft 491 kts 156°
2026-05-06 14:12 43.91847 47.98623 32963 ft 491 kts 156°
2026-05-06 14:13 43.83422 48.04123 32958 ft 492 kts 156°
2026-05-06 14:13 43.77219 48.08159 32966 ft 492 kts 156°
2026-05-06 14:14 43.71013 48.12189 32968 ft 493 kts 156°
2026-05-06 14:14 43.64800 48.16214 32959 ft 493 kts 157°
2026-05-06 14:15 43.58585 48.20232 32972 ft 493 kts 157°
2026-05-06 14:15 43.52411 48.24214 32969 ft 493 kts 157°
2026-05-06 14:16 43.46197 48.28214 32968 ft 492 kts 158°
2026-05-06 14:16 43.39982 48.32203 32979 ft 492 kts 158°
2026-05-06 14:17 43.33777 48.36179 32977 ft 492 kts 158°
2026-05-06 14:17 43.27577 48.40143 32978 ft 491 kts 158°
2026-05-06 14:18 43.21498 48.44311 32981 ft 493 kts 151°
2026-05-06 14:18 43.15739 48.49467 32992 ft 494 kts 149°
2026-05-06 14:19 43.10003 48.54662 32974 ft 494 kts 150°
2026-05-06 14:19 43.04242 48.59811 32987 ft 494 kts 150°
2026-05-06 14:20 42.98475 48.64926 32991 ft 495 kts 150°
2026-05-06 14:20 42.92723 48.70015 32979 ft 495 kts 151°
2026-05-06 14:21 42.86936 48.75126 32991 ft 496 kts 151°
2026-05-06 14:21 42.81132 48.80244 32992 ft 497 kts 151°
2026-05-06 14:22 42.75323 48.85354 32982 ft 497 kts 152°
2026-05-06 14:22 42.69493 48.90276 32997 ft 496 kts 153°
2026-05-06 14:23 42.63588 48.95130 32999 ft 496 kts 153°
2026-05-06 14:23 42.57692 48.99992 33003 ft 496 kts 153°
2026-05-06 14:24 42.51893 49.04786 32999 ft 496 kts 153°
2026-05-06 14:24 42.45993 49.09659 33005 ft 497 kts 153°
2026-05-06 14:25 42.40091 49.14522 32992 ft 496 kts 154°
2026-05-06 14:25 42.34188 49.19376 32999 ft 496 kts 154°
2026-05-06 14:26 42.28321 49.24189 33006 ft 496 kts 154°
2026-05-06 14:26 42.22303 49.28662 33004 ft 489 kts 162°
2026-05-06 14:27 42.15963 49.31712 33008 ft 482 kts 168°
2026-05-06 14:27 42.09572 49.34503 33010 ft 483 kts 168°
2026-05-06 14:28 42.03198 49.37327 33008 ft 482 kts 169°
2026-05-06 14:28 41.96842 49.40165 33018 ft 481 kts 168°
2026-05-06 14:29 41.90484 49.43007 33019 ft 481 kts 168°
2026-05-06 14:29 41.84151 49.45835 33002 ft 476 kts 169°
2026-05-06 14:30 41.78041 49.48567 32869 ft 454 kts 169°
2026-05-06 14:30 41.72171 49.51182 32710 ft 434 kts 170°
2026-05-06 14:31 41.69318 49.52448 32528 ft 427 kts 170°
2026-05-06 14:31 41.66512 49.53687 32248 ft 423 kts 171°
2026-05-06 14:31 41.63720 49.54915 31841 ft 422 kts 171°
2026-05-06 14:31 41.60932 49.56140 31444 ft 421 kts 171°
2026-05-06 14:32 41.58149 49.57364 31084 ft 419 kts 171°
2026-05-06 14:32 41.55383 49.58583 30779 ft 417 kts 171°
2026-05-06 14:32 41.52644 49.59791 30410 ft 413 kts 171°
2026-05-06 14:32 41.49924 49.60990 29946 ft 410 kts 171°
2026-05-06 14:33 41.47226 49.62178 29434 ft 407 kts 171°
2026-05-06 14:33 41.44581 49.63340 28977 ft 403 kts 171°
2026-05-06 14:33 41.41927 49.64507 28517 ft 400 kts 170°
2026-05-06 14:33 41.39296 49.65661 28065 ft 396 kts 170°
2026-05-06 14:34 41.36683 49.66806 27612 ft 393 kts 170°
2026-05-06 14:34 41.34091 49.67941 27157 ft 390 kts 170°
2026-05-06 14:34 41.31518 49.69068 26722 ft 387 kts 171°
2026-05-06 14:34 41.28968 49.70183 26289 ft 385 kts 171°
2026-05-06 14:35 41.26437 49.71289 25862 ft 382 kts 170°
2026-05-06 14:35 41.23916 49.72389 25433 ft 380 kts 170°
2026-05-06 14:35 41.21411 49.73481 25013 ft 378 kts 170°
2026-05-06 14:35 41.18921 49.74566 24593 ft 376 kts 170°
2026-05-06 14:36 41.16440 49.75646 24173 ft 375 kts 170°
2026-05-06 14:36 41.13968 49.76722 23742 ft 373 kts 170°
2026-05-06 14:36 41.11505 49.77782 23277 ft 370 kts 172°
2026-05-06 14:36 41.09036 49.78288 22793 ft 349 kts 187°
2026-05-06 14:37 41.06653 49.78277 22399 ft 345 kts 188°
2026-05-06 14:37 41.04261 49.78253 21971 ft 343 kts 187°
2026-05-06 14:37 41.01878 49.78239 21549 ft 341 kts 187°
2026-05-06 14:37 40.99510 49.78237 21148 ft 340 kts 187°
2026-05-06 14:38 40.97147 49.78246 20732 ft 339 kts 187°
2026-05-06 14:38 40.94792 49.78260 20309 ft 338 kts 187°
2026-05-06 14:38 40.92443 49.78279 19911 ft 337 kts 186°
2026-05-06 14:38 40.90101 49.78299 19509 ft 336 kts 186°
2026-05-06 14:39 40.87762 49.78320 19109 ft 336 kts 186°
2026-05-06 14:39 40.85426 49.78342 18705 ft 336 kts 186°
2026-05-06 14:39 40.83087 49.78363 18286 ft 336 kts 186°
2026-05-06 14:39 40.80745 49.78386 17829 ft 337 kts 186°
2026-05-06 14:40 40.78400 49.78408 17389 ft 336 kts 186°
2026-05-06 14:40 40.76060 49.78431 16975 ft 336 kts 185°
2026-05-06 14:40 40.73725 49.78453 16558 ft 335 kts 185°
2026-05-06 14:40 40.71394 49.78462 16149 ft 334 kts 187°
2026-05-06 14:41 40.69100 49.78181 15740 ft 329 kts 193°
2026-05-06 14:41 40.66836 49.77732 15339 ft 329 kts 194°
2026-05-06 14:41 40.64573 49.77298 14937 ft 329 kts 193°
2026-05-06 14:41 40.62298 49.76892 14536 ft 329 kts 193°
2026-05-06 14:42 40.60032 49.76496 14129 ft 330 kts 193°
2026-05-06 14:42 40.57754 49.76098 13724 ft 331 kts 192°
2026-05-06 14:42 40.55475 49.75700 13306 ft 331 kts 192°
2026-05-06 14:42 40.53195 49.75303 12884 ft 331 kts 192°
2026-05-06 14:43 40.50969 49.74918 12464 ft 322 kts 192°
2026-05-06 14:43 40.48774 49.74540 12083 ft 317 kts 192°
2026-05-06 14:43 40.46589 49.74159 11713 ft 316 kts 192°
2026-05-06 14:43 40.44453 49.73791 11553 ft 300 kts 192°
2026-05-06 14:44 40.42453 49.73450 11350 ft 280 kts 193°
2026-05-06 14:44 40.40567 49.73125 11011 ft 267 kts 193°
2026-05-06 14:44 40.38750 49.72810 10567 ft 260 kts 193°
2026-05-06 14:45 40.35130 49.72172 9637 ft 262 kts 193°
2026-05-06 14:45 40.33339 49.71862 9337 ft 257 kts 193°
2026-05-06 14:45 40.31576 49.71557 9140 ft 254 kts 193°
2026-05-06 14:45 40.29832 49.71256 9011 ft 249 kts 193°
2026-05-06 14:46 40.28162 49.70970 8841 ft 239 kts 193°
2026-05-06 14:46 40.26509 49.70936 8647 ft 239 kts 172°
2026-05-06 14:46 40.24982 49.71768 8534 ft 240 kts 166°
2026-05-06 14:46 40.23381 49.72343 8440 ft 239 kts 175°
2026-05-06 14:47 40.21715 49.72753 8276 ft 247 kts 175°
2026-05-06 14:47 40.20022 49.73195 7996 ft 248 kts 174°
2026-05-06 14:47 40.18354 49.73662 7706 ft 241 kts 173°
2026-05-06 14:47 40.16741 49.74127 7430 ft 235 kts 173°
2026-05-06 14:48 40.15151 49.74590 7168 ft 233 kts 173°
2026-05-06 14:48 40.13618 49.75210 7143 ft 237 kts 153°
2026-05-06 14:48 40.12746 49.76129 7148 ft 249 kts 139°
2026-05-06 14:48 40.11502 49.77754 7121 ft 256 kts 139°
2026-05-06 14:49 40.10232 49.79386 7067 ft 255 kts 140°
2026-05-06 14:49 40.08572 49.81500 7019 ft 246 kts 140°
2026-05-06 14:49 40.07751 49.82542 7009 ft 243 kts 140°
2026-05-06 14:49 40.06546 49.84073 7013 ft 241 kts 137°
2026-05-06 14:50 40.05613 49.85862 7022 ft 243 kts 120°
2026-05-06 14:50 40.04886 49.87877 7029 ft 247 kts 117°
2026-05-06 14:50 40.04163 49.89928 7034 ft 250 kts 118°
2026-05-06 14:50 40.03417 49.91986 7026 ft 250 kts 118°
2026-05-06 14:51 40.02668 49.94021 7018 ft 246 kts 118°
2026-05-06 14:51 40.01926 49.96029 7009 ft 244 kts 117°
2026-05-06 14:51 40.01481 49.98150 7020 ft 244 kts 98°
2026-05-06 14:51 40.01325 50.00287 7026 ft 247 kts 95°
2026-05-06 14:52 40.01188 50.02531 7030 ft 248 kts 92°
2026-05-06 14:52 40.01556 50.04695 6937 ft 247 kts 53°
2026-05-06 14:52 40.02811 50.06116 6661 ft 237 kts 14°
2026-05-06 14:52 40.04382 50.06425 6352 ft 225 kts 355°
2026-05-06 14:53 40.05935 50.06456 6010 ft 221 kts 355°
2026-05-06 14:53 40.07449 50.06474 5729 ft 214 kts 355°
2026-05-06 14:53 40.08912 50.06484 5477 ft 206 kts 356°
2026-05-06 14:53 40.10339 50.06489 5260 ft 204 kts 356°
2026-05-06 14:54 40.11748 50.06493 5030 ft 201 kts 356°
2026-05-06 14:54 40.13114 50.06498 4809 ft 197 kts 357°
2026-05-06 14:54 40.14474 50.06502 4595 ft 191 kts 358°
2026-05-06 14:54 40.15800 50.06506 4371 ft 192 kts 358°
2026-05-06 14:55 40.17115 50.06510 4138 ft 185 kts 358°
2026-05-06 14:55 40.18373 50.06515 3913 ft 178 kts 358°
2026-05-06 14:55 40.19612 50.06519 3732 ft 177 kts 358°
2026-05-06 14:55 40.20851 50.06523 3568 ft 177 kts 358°
2026-05-06 14:56 40.22081 50.06527 3425 ft 177 kts 359°
2026-05-06 14:56 40.23301 50.06532 3278 ft 175 kts 359°
2026-05-06 14:56 40.24506 50.06536 3129 ft 174 kts 359°
2026-05-06 14:56 40.25709 50.06540 2975 ft 171 kts 359°
2026-05-06 14:57 40.26900 50.06545 2807 ft 171 kts 359°
2026-05-06 14:57 40.28086 50.06549 2697 ft 170 kts 359°
2026-05-06 14:57 40.29276 50.06554 2557 ft 172 kts 359°
2026-05-06 14:57 40.30471 50.06558 2454 ft 171 kts 359°